Tracking 31027 objects as of 19-Jul-2025
HD Live streaming from Space Station
objects crossing your sky now

STARLINK-31441

Track STARLINK-31441 now!
10-day predictions
STARLINK-31441 is classified as:


NORAD ID: 60091
Int'l Code: 2024-117A
Perigee: 481.5 km
Apogee: 483.1 km
Inclination: 53.2 °
Period: 94.1 minutes
Semi major axis: 6853 km
RCS: Unknown
Launch date: June 23, 2024
Source: United States (US)
Launch site: AIR FORCE EASTERN TEST RANGE (AFETR)
Your satellite tracking list
ONEWEB-0142
Track 1 satellite(s)




NASA's NSSDC Master Catalog

Two Line Element Set (TLE):
1 60091U 24117A   25198.98774305  .00002686  00000-0  10275-3 0  9999
2 60091  53.1602  47.2115 0001200  64.5947 295.5178 15.30211811 60953
Source of the keplerian elements: AFSPC